Lapse_Rate
9.4 8.8 9.2 9.5 9.3 8.4 8.5 8.4 9.2 9.1 9.6 9.7 9.5 9.7 9.7 9.8 9.8 9.7 9.7 9.7 9.6 9.7 9.8 9.6 9.6 9.8 9.7 9.8 9.8 9.7 9.5 9.4 8.7 9.2 9.7 9.9 9.8 9.8 9.8 9.7 9.7 9.7 9.2
9.3 9.1 9.4 9.3 8.7 8.5 8.1 9.3 9.2 9.3 9.6 9.8 9.7 9.4 9.6 9.5 9.8 9.7 9.6 9.6 9.5 9.5 9.6 9.6 9.4 9.9 9.6 9.7 9.7 9.5 9.5 9.6 9.1 8.7 9.4 9.5 9.6 9.9 9.9 9.9 9.8 9.7 9.7
9.2 9.2 9.3 9.0 8.8 9.1 9.2 9.4 9.8 9.8 9.7 9.8 9.8 9.5 8.5 8.3 9.5 9.6 9.4 9.4 9.3 9.4 9.6 9.2 7.9 8.3 9.2 9.5 9.6 9.5 9.6 9.7 9.5 9.1 9.1 9.6 9.7 9.9 9.7 9.9 9.9 9.8 9.6
9.2 9.0 9.0 9.2 9.4 9.5 9.6 9.4 9.7 9.8 9.5 9.3 9.0 7.8 6.4 6.9 7.7 8.4 9.7 9.6 9.1 7.9 8.0 6.2 5.1 4.4 4.4 5.1 9.2 8.5 8.9 9.4 9.4 9.2 9.1 9.2 9.4 9.7 9.7 9.4 9.3 9.7 9.5
8.8 9.0 9.0 9.4 9.5 9.6 9.4 9.4 9.2 9.3 7.5 6.7 6.5 6.2 5.7 5.8 6.3 7.9 9.0 8.6 9.1 8.4 8.1 6.7 4.0 3.0 1.9 1.9 3.9 4.2 4.9 7.7 9.3 9.2 9.1 9.2 9.2 9.0 9.0 9.5 9.3 9.4 9.6
8.9 9.0 9.2 9.4 9.6 9.3 9.2 9.0 8.8 8.4 7.2 6.3 5.0 3.0 2.0 1.4 1.0 1.9 4.6 5.2 5.2 5.1 5.2 6.4 5.8 3.7 3.4 1.7 2.1 2.3 2.2 3.1 5.7 9.0 9.1 8.8 8.9 6.2 8.2 9.3 9.3 9.0 8.7
9.0 9.1 9.3 9.3 9.4 9.5 9.6 9.6 9.0 8.8 7.3 4.9 4.0 3.7 2.4 1.3 1.2 1.2 2.1 3.6 3.0 2.4 2.5 3.4 3.9 3.2 2.8 3.8 3.9 3.7 3.6 3.2 3.2 6.2 5.7 4.8 5.1 4.1 5.1 8.6 9.3 9.2 9.0
9.0 9.2 9.4 9.1 9.4 9.5 9.5 9.5 9.5 9.6 8.5 6.8 6.0 5.3 4.7 3.2 1.3 1.1 1.4 2.4 2.2 2.1 2.4 2.5 2.9 2.5 1.4 1.8 3.1 4.1 4.6 4.7 3.4 4.0 4.6 3.7 3.5 3.7 4.6 8.6 9.2 9.5 9.6
9.1 9.1 9.2 9.2 9.5 9.5 9.4 9.5 9.6 9.6 9.6 9.6 9.5 9.4 8.8 4.2 1.7 1.3 1.4 4.4 3.1 2.4 2.2 1.9 2.4 2.3 1.0 1.1 3.5 3.9 4.7 4.8 4.3 3.4 3.2 3.3 3.6 3.8 4.5 7.0 7.0 9.0 8.7
9.1 9.0 8.9 9.2 9.7 9.5 9.5 9.5 9.7 9.7 9.6 9.7 9.6 9.7 7.4 6.3 1.8 1.6 2.4 9.6 9.1 8.9 6.9 2.9 0.9 1.5 1.0 1.3 3.5 4.4 4.7 4.1 4.9 6.0 8.6 8.9 9.0 9.3 7.3 6.8 6.9 8.6 8.7
8.2 7.8 8.7 9.1 9.7 9.6 9.6 9.6 9.6 9.6 9.6 9.5 9.5 9.7 7.9 9.1 3.7 2.2 2.3 6.8 8.8 8.5 8.8 9.2 4.2 0.7 0.9 1.3 1.9 3.3 2.5 2.5 5.7 8.6 9.3 9.3 9.2 9.3 9.1 8.0 7.8 9.0 8.8
5.3 6.5 7.6 9.1 9.7 9.7 9.5 9.6 9.6 9.5 9.4 9.3 9.3 9.4 9.5 7.9 4.2 2.3 2.1 1.7 2.6 6.6 6.8 6.0 2.3 1.0 0.7 1.1 2.6 1.2 1.9 3.6 7.8 9.2 9.2 9.2 9.2 9.3 9.4 9.1 9.0 9.4 9.1
4.9 5.1 6.2 6.5 6.4 9.1 9.3 9.1 9.3 9.4 9.3 9.1 9.1 8.9 8.7 7.9 4.0 2.3 2.1 1.5 1.8 4.6 4.6 1.4 1.4 0.9 1.1 0.9 1.3 1.8 3.1 6.2 8.5 9.0 9.0 9.1 9.4 9.6 9.6 9.6 9.6 9.7 9.7
4.9 5.4 5.8 5.3 5.4 5.1 7.7 8.0 8.9 8.6 8.5 8.4 8.4 7.6 7.5 6.1 4.6 2.2 2.0 1.8 1.8 2.5 1.5 2.0 2.4 2.4 2.2 3.2 3.0 3.5 5.9 6.4 6.8 9.1 9.2 9.5 9.7 9.7 9.6 9.8 9.5 9.6 9.4
5.6 7.3 8.7 8.3 7.1 5.9 6.9 6.6 6.8 6.5 7.1 7.5 7.0 6.6 6.2 5.6 3.7 3.4 3.2 2.9 2.9 3.4 3.1 3.9 3.7 5.6 8.3 8.5 9.0 8.8 8.6 9.4 9.3 9.4 9.4 9.3 9.4 9.5 9.3 9.7 9.5 9.4 9.0
6.9 8.4 9.2 9.1 8.6 8.6 8.0 6.4 3.4 4.4 4.8 5.0 5.4 5.3 4.9 4.6 4.8 4.2 4.2 4.6 5.1 3.6 5.3 8.2 8.6 8.7 8.8 8.9 9.0 9.1 9.3 8.3 9.3 9.4 9.4 9.3 9.2 9.1 9.1 9.3 9.3 9.1 8.8
8.8 9.1 9.3 8.9 9.3 9.2 8.9 8.6 6.3 3.1 2.5 3.8 4.0 4.7 4.8 4.4 4.7 4.6 4.5 4.8 5.2 4.3 5.5 8.6 8.7 8.7 8.6 8.8 9.1 9.0 8.9 9.1 8.1 8.1 9.2 9.1 9.1 9.1 9.0 8.9 9.0 8.9 8.8
6.4 6.8 8.0 7.7 8.0 8.0 7.9 7.9 7.7 7.1 5.0 4.5 3.0 3.6 4.0 4.7 3.9 4.2 4.4 5.3 5.8 5.2 6.9 8.6 8.7 8.8 8.9 8.7 8.8 9.0 9.1 9.1 8.9 9.1 9.1 9.2 9.0 8.8 8.8 8.8 8.9 8.7 8.7
7.9 7.9 7.7 7.3 7.8 8.3 8.7 8.8 8.7 8.5 8.3 8.0 6.8 3.5 4.0 4.2 4.4 4.9 5.4 5.9 7.4 8.5 7.9 8.0 8.8 8.9 8.9 8.9 8.8 8.6 8.9 9.0 8.9 8.8 8.9 8.9 9.1 9.1 8.7 8.8 8.9 8.5 8.5
7.0 6.5 6.3 7.8 8.5 8.7 8.9 8.9 8.8 8.9 8.8 8.9 8.8 8.6 5.4 4.4 4.6 4.9 5.7 6.1 7.5 8.7 8.8 8.5 8.5 8.4 8.6 9.0 9.0 8.9 8.4 8.4 8.8 8.8 9.0 9.0 8.9 8.8 8.7 8.8 8.8 8.7 8.8
7.0 7.9 6.4 7.6 8.7 8.5 8.9 8.9 8.9 8.9 8.9 8.8 8.8 8.4 8.2 6.4 5.4 6.2 6.9 7.2 7.5 8.4 8.5 8.6 8.5 8.4 8.4 8.6 9.0 9.0 8.5 8.6 8.8 8.9 9.1 9.1 8.9 8.9 9.0 9.0 8.9 9.0 9.0
8.2 8.7 7.7 7.7 8.8 8.4 8.5 8.7 8.8 8.9 9.0 8.9 9.1 9.1 7.7 8.2 8.2 8.3 8.4 8.2 8.0 8.2 8.4 8.4 8.2 8.4 8.5 8.8 9.0 9.1 9.0 9.0 9.1 9.1 9.1 8.9 8.7 8.9 9.0 8.9 9.0 9.0 9.3
8.7 8.3 8.7 8.5 8.5 8.5 8.1 8.5 8.8 8.6 8.8 8.9 9.2 9.1 8.4 8.0 8.2 8.5 8.5 8.4 8.5 8.2 8.2 8.2 8.0 8.4 8.2 8.0 8.3 8.7 8.9 8.9 8.8 8.2 8.3 8.3 9.0 9.0 8.8 8.9 9.1 9.3 9.1
7.5 7.2 7.6 8.6 8.1 8.4 8.6 8.0 8.4 8.8 8.9 8.8 8.2 8.3 8.5 7.7 7.5 7.5 7.9 8.1 8.2 8.0 7.8 7.8 7.9 8.1 7.4 7.7 7.9 8.3 8.8 7.9 7.4 7.0 6.3 6.8 7.1 7.4 8.3 8.9 9.1 9.2 9.2
7.5 6.2 6.7 7.5 8.2 7.7 7.9 8.4 8.3 8.4 8.4 8.3 8.0 7.7 8.3 7.9 8.0 7.6 7.8 8.0 8.0 7.8 7.7 7.4 7.3 7.0 6.9 6.6 7.0 4.6 2.4 0.6 3.0 1.6 3.5 4.7 5.6 5.9 6.5 7.9 9.2 9.2 9.2
7.3 6.9 7.2 7.5 8.1 7.7 7.7 7.8 7.7 7.8 7.8 7.7 7.6 7.7 7.8 7.9 8.1 8.0 8.0 7.9 7.8 7.4 7.2 6.6 6.3 5.6 4.2 3.3 2.5 0.1 -0.2 -0.4 0.4 -0.4 0.5 3.3 5.2 6.5 8.6 9.2 8.9 9.1 9.2
Wind_Speed
12 11 10 9 9 8 7 7 7 8 8 7 7 7 6 6 6 7 7 6 7 6 6 7 7 7 5 6 5 5 5 5 5 7 6 8 10 11 13 14 12 9 13
12 11 11 10 10 9 8 8 8 8 9 8 8 7 7 7 6 6 7 6 7 7 7 7 8 6 7 7 5 7 6 5 5 8 7 7 9 11 12 10 12 12 10
13 12 12 11 11 10 9 9 9 9 9 8 8 7 7 7 6 6 6 6 7 7 7 8 9 9 9 7 7 7 7 6 5 5 6 7 8 10 10 10 10 12 10
13 13 12 12 11 11 10 10 9 9 9 8 7 7 7 6 6 5 5 6 7 7 7 9 9 10 10 10 8 10 9 8 7 6 6 7 8 11 10 10 9 9 5
14 13 13 12 12 11 11 11 10 10 9 8 8 7 6 6 4 4 5 5 6 6 6 7 9 10 11 12 7 9 11 8 7 7 7 7 9 10 11 9 9 10 8
15 14 14 14 13 13 12 12 11 10 10 9 8 7 6 5 7 6 4 5 6 5 5 5 7 9 7 8 9 8 10 9 9 8 7 8 10 10 10 10 9 10 9
16 15 15 15 14 14 13 13 12 12 11 10 9 9 8 7 8 6 3 5 5 5 5 4 4 6 9 7 4 2 7 9 8 8 8 8 9 11 12 12 12 10 9
17 16 16 15 15 14 14 14 13 12 12 11 10 10 9 7 10 8 5 6 4 4 3 3 3 5 8 5 4 4 4 6 7 8 6 6 7 12 12 12 11 11 8
18 17 16 16 16 15 15 15 13 12 11 11 10 10 10 9 12 10 9 7 6 4 3 3 2 4 6 7 2 3 2 4 3 1 1 3 7 5 13 10 8 9 9
15 15 15 16 16 16 15 15 13 11 11 9 9 9 5 10 11 11 11 5 5 4 6 7 5 4 5 6 3 3 3 4 5 5 1 2 6 7 8 11 8 8 7
10 13 15 16 16 16 15 12 13 12 11 10 10 8 8 8 10 10 10 6 4 4 3 4 6 4 3 4 6 4 4 6 4 4 3 3 4 7 8 10 10 6 7
8 8 12 14 12 13 15 13 13 12 11 11 10 8 7 7 8 10 8 4 2 4 3 2 6 4 1 2 3 4 5 7 3 3 3 3 4 5 6 8 7 8 5
10 9 7 5 6 11 13 12 10 12 10 9 8 7 7 6 7 10 9 5 1 2 3 7 8 4 3 6 2 3 7 2 3 3 3 3 3 5 7 7 8 10 9
11 9 8 7 5 3 6 7 8 8 7 7 7 7 7 7 7 7 7 7 6 4 6 5 4 3 3 2 4 7 3 2 3 3 3 3 4 4 4 5 6 6 6
12 12 14 11 10 7 5 6 6 4 4 7 7 7 7 7 7 10 11 8 7 8 8 5 5 6 5 5 4 4 4 4 4 3 4 4 4 4 4 6 5 7 7
14 12 11 11 11 10 9 7 5 2 6 5 7 8 5 5 12 17 17 15 13 13 6 6 6 6 5 5 4 4 4 4 5 3 4 4 4 5 5 7 6 7 8
14 13 10 10 10 10 10 10 9 4 2 6 8 9 10 10 12 16 17 15 13 11 7 7 7 6 5 5 5 5 5 4 2 4 6 5 5 5 6 7 7 7 8
5 8 7 8 6 7 8 7 7 8 9 9 11 12 13 13 15 17 18 15 9 10 8 8 7 7 7 6 6 6 6 5 6 6 6 5 5 6 6 7 8 8 9
9 7 6 7 6 8 8 9 9 9 8 7 7 10 12 16 17 18 20 10 10 9 10 9 8 8 7 7 6 6 6 6 6 5 5 5 6 7 7 8 8 10 10
8 7 8 8 7 8 8 9 9 10 9 9 8 8 9 11 10 11 11 11 10 9 8 8 8 8 8 7 7 6 6 7 7 7 8 8 7 7 8 8 8 10 10
8 8 9 8 7 7 8 9 9 8 8 8 8 8 13 11 11 11 10 11 11 10 10 9 8 7 7 7 7 7 7 7 7 7 7 7 7 7 8 8 9 10 10
6 7 8 9 8 7 7 7 8 9 9 9 8 8 13 8 9 9 10 10 10 10 9 8 7 7 8 8 8 8 8 8 8 7 7 6 6 7 8 9 10 10 10
7 7 7 7 8 8 7 8 8 8 8 8 8 8 8 9 9 9 9 8 8 8 11 11 6 6 11 11 12 11 7 7 7 2 3 5 7 8 8 9 10 9 9
6 6 7 6 6 8 6 6 8 9 9 8 7 7 7 8 8 9 8 7 7 7 11 11 11 11 11 12 12 12 9 4 2 3 4 5 7 9 9 9 9 10 9
4 4 4 6 6 6 6 7 7 8 7 7 6 7 7 7 7 8 7 7 7 7 9 12 13 12 10 5 6 10 11 9 5 1 3 7 8 9 9 8 9 10 11
4 5 5 5 5 6 6 6 7 7 7 6 6 6 6 6 7 6 6 7 7 6 5 7 10 13 13 10 10 11 9 6 2 0 3 7 6 7 7 9 11 9 11
Wind_Direction
162 157 155 157 153 149 141 144 148 138 136 129 118 113 105 100 93 87 88 77 69 64 57 45 39 29 33 20 16 14 13 7 347 347 8 16 11 3 1 1 8 11 40
163 162 163 157 157 155 150 156 151 144 140 135 127 122 115 97 87 84 76 73 69 62 50 48 33 22 21 31 16 12 14 352 353 341 7 11 19 5 357 0 8 1 18
169 167 164 163 164 160 158 158 156 150 144 142 135 128 110 97 95 90 88 82 73 61 49 48 36 24 26 8 20 12 3 349 4 344 6 12 17 11 359 4 12 353 16
171 172 169 171 168 162 159 158 156 151 145 131 127 125 118 113 106 89 87 93 85 72 65 53 44 38 23 11 14 11 2 352 4 358 17 9 19 11 4 359 4 354 20
174 176 173 171 166 159 158 158 158 156 145 149 143 129 115 110 71 76 98 82 77 82 72 79 57 53 46 36 18 13 9 1 9 3 14 8 12 7 3 350 0 348 360
179 180 177 168 168 161 164 163 162 157 154 148 131 116 97 102 89 41 63 82 77 73 64 46 69 44 58 72 42 38 35 15 12 6 8 9 5 4 350 349 356 352 354
183 181 179 171 171 169 167 169 166 164 157 151 151 142 138 128 131 112 46 97 102 88 57 45 50 54 30 12 38 120 81 47 15 343 9 13 358 356 346 345 351 344 351
186 182 177 173 175 173 175 175 175 170 166 162 158 160 153 149 154 144 143 124 115 101 92 64 61 54 39 10 18 28 25 29 24 10 19 6 357 353 348 331 347 332 351
189 182 178 177 178 178 181 180 179 175 172 168 166 168 160 144 171 178 204 170 153 146 131 69 29 64 37 12 0 16 11 43 35 22 274 296 317 349 356 344 359 351 352
186 180 174 181 183 184 181 182 180 180 175 166 171 174 129 140 174 194 221 239 195 162 172 143 94 54 41 16 348 349 8 10 356 339 15 316 341 7 16 360 358 351 350
164 169 182 185 190 183 183 182 182 181 174 170 175 174 170 164 162 193 225 258 204 196 182 186 119 91 37 16 340 34 18 315 311 298 327 6 0 3 7 359 6 346 347
155 163 187 192 188 183 186 183 186 184 180 180 180 179 182 171 145 187 213 285 35 193 188 157 103 133 126 7 326 8 325 289 326 332 336 355 349 358 351 349 338 334 315
164 191 161 153 195 185 187 183 187 190 186 183 185 183 185 183 159 170 190 191 95 172 184 85 122 164 212 210 192 301 285 326 317 312 330 344 343 336 319 349 340 340 330
177 172 152 158 154 132 176 175 187 190 187 185 188 188 189 181 186 181 194 187 181 193 140 159 185 236 250 271 234 221 264 306 313 310 318 325 320 332 343 347 340 338 330
183 184 186 186 186 167 179 172 184 188 188 190 195 193 191 191 192 183 188 191 190 205 179 176 208 215 223 221 227 211 255 242 243 281 295 308 317 328 336 332 328 330 329
187 189 188 188 190 191 191 181 78 140 194 154 178 189 194 148 169 187 196 201 194 166 196 222 227 226 241 252 250 250 237 201 255 280 281 291 307 317 327 314 322 320 321
187 184 185 188 184 192 194 194 190 171 157 203 187 189 184 174 176 188 194 195 188 176 224 229 234 240 238 242 249 248 254 248 121 261 268 276 282 295 301 303 308 311 314
154 163 176 185 184 187 193 198 196 192 203 212 217 212 209 197 191 193 189 186 196 209 232 238 240 232 236 238 242 241 242 232 222 235 253 267 275 283 290 296 305 308 310
171 167 169 177 190 191 197 207 213 212 211 210 196 195 207 202 193 194 193 206 214 218 214 223 233 241 239 235 233 237 241 242 243 250 257 274 279 275 279 286 295 296 295
179 164 180 185 199 206 212 214 218 223 222 220 218 204 190 187 197 199 205 213 226 234 231 226 222 220 223 230 232 229 232 230 233 232 240 245 256 275 288 296 299 302 301
188 187 186 213 205 203 215 220 225 222 225 221 222 208 191 193 201 206 207 211 220 226 229 230 226 217 218 219 223 232 230 238 240 242 251 263 272 281 289 294 295 294 290
195 199 185 215 225 215 215 222 230 230 228 227 226 209 194 208 208 211 214 215 216 221 226 226 220 219 215 216 217 225 232 237 242 246 254 265 279 292 293 294 293 294 301
205 204 210 205 224 228 217 230 233 227 232 228 225 219 195 206 219 229 228 227 222 218 218 214 210 214 215 211 217 224 234 237 243 276 297 296 290 290 296 298 297 295 301
207 206 224 230 206 234 228 214 235 232 226 225 222 226 224 202 210 219 231 234 226 220 209 204 208 209 207 208 211 212 220 236 252 284 284 280 286 293 292 296 296 296 289
191 213 228 234 232 211 237 225 221 229 228 229 227 221 222 224 221 216 220 224 223 216 205 200 202 197 185 153 160 102 107 95 96 60 282 271 273 280 279 279 282 287 290
219 224 231 228 229 217 218 226 225 225 225 222 218 223 226 231 229 226 221 218 220 208 176 138 129 122 119 114 104 108 107 104 115 154 290 278 276 277 281 288 297 296 292